Find Starlink 30948

NORAD ID: 58525 Int'l Des: 2023-191 Owner: SPXS Country: US Constellation: starlink operational
LEOCIRCULAR

实时位置

正在加载3D地球...

关于 Starlink 30948

正在加载描述...

即将过境

Passes for default location (London). Set your location on the main map for personalized predictions.

高度历史

Loading altitude history...

两行轨道根数

1 58525U 23191T 26122.17764925 -.00000906 00000-0 -23414-4 0 9990
2 58525 43.0012 161.1864 0001636 277.2584 82.8082 15.27574366133657
Epoch: May 2, 2026 • Age: 9 hours

当前状态

高度 489.6 km
速度 7.62 km/s
星下点 -28.55°S, 60.78°E
发射日期 Dec 7, 2023
运行时间 2.4 years
类型 internet

技术详情

分类 Payload
质量 730.00 kg
干质量 700.00 kg
总质量 730.00 kg
长度 0.30 m
直径 4.10 m
跨度 29.00 m
形状 Box + pan
制造商 SPXS
平台类型 Starlink V2M
阶段状态 In Orbit
所有者/国家 SPXS/US

Most Searched